, LA

(GMT )
Venice

Weather History for K1B7 - August, 2014

Change the Weather History Date:

Saturday, August 30, 2014

  Actual Average Record
Temperature  
Mean Temperature 84 °F -  
Max Temperature 89 °F - - ()
Min Temperature 78 °F - - ()
Cooling Degree Days 18    
Growing Degree Days 34 (Base 50)    
Moisture  
Dew Point 78 °F    
Average Humidity 80    
Maximum Humidity 94    
Minimum Humidity 62    
Precipitation  
Precipitation 0.00 in - - ()
Sea Level Pressure  
Sea Level Pressure 30.02 in    
Wind  
Wind Speed 11 mph (SSE)    
Max Wind Speed 22 mph    
Max Gust Speed 28 mph    
Visibility 10 miles    
Events Thunderstorm    
Averages and records for this station are not official NWS values.
T = Trace of Precipitation, MM = Missing Value Source: NWS Daily Summary

Daily Weather History Graph

Daily Weather History Graph

Search for Another Location

Airport or City:

Trip Planner

Search our weather history database for the weather conditions in past years. The results will help you decide how hot, cold, wet, or windy it might be!

Date:

Astronomy

Aug. 30, 2014 Rise Set
Actual Time 6:34 AM CDT 7:21 PM CDT
Civil Twilight 6:09 AM CDT 7:46 PM CDT
Nautical Twilight 5:41 AM CDT 8:14 PM CDT
Astronomical Twilight 5:12 AM CDT 8:43 PM CDT
Moon 10:57 AM CDT (8/30) 10:21 PM CDT (8/30)
Length of Visible Light 13h 36m
Length of Day
12h 47m
Waxing Crescent, 23% of the Moon is Illuminated
Aug 30
Waxing Crescent
Sep 2
First Quarter
Sep 8
Full
Sep 15
Last Quarter
Sep 24
New

Hourly Weather History & Observations

Time (CDT) Temp. Heat Index Dew Point Humidity Pressure Visibility Wind Dir Wind Speed Gust Speed Precip Events Conditions
4:49 AM 78.8 °F - 77.0 °F 94% 30.00 in 10.0 mi SE 4.6 mph - N/A   Clear
5:24 AM 78.8 °F - 77.0 °F 94% 29.99 in 10.0 mi ESE 5.8 mph - N/A   Clear
5:45 AM 78.8 °F - 77.0 °F 94% 30.00 in 10.0 mi SE 5.8 mph - N/A   Clear
6:14 AM 78.8 °F - 77.0 °F 94% 30.00 in 10.0 mi SE 9.2 mph - N/A   Scattered Clouds
6:49 AM 80.6 °F 88.1 °F 78.8 °F 94% 30.00 in 10.0 mi SE 4.6 mph - N/A   Scattered Clouds
7:12 AM 82.4 °F 92.4 °F 78.8 °F 89% 30.00 in 10.0 mi SE 8.1 mph - N/A   Partly Cloudy
7:45 AM 82.4 °F 94.0 °F 80.6 °F 94% 30.01 in 10.0 mi SSE 11.5 mph - N/A   Partly Cloudy
8:12 AM 84.2 °F 98.3 °F 80.6 °F 89% 30.02 in 10.0 mi SSE 8.1 mph - N/A   Scattered Clouds
8:50 AM 86.0 °F 101.9 °F 80.6 °F 84% 30.01 in 10.0 mi South 10.4 mph - N/A   Scattered Clouds
9:23 AM 86.0 °F 101.9 °F 80.6 °F 84% 30.03 in 10.0 mi SSE 15.0 mph - N/A   Mostly Cloudy
9:45 AM 86.0 °F 99.3 °F 78.8 °F 79% 30.03 in 10.0 mi South 17.3 mph - N/A   Mostly Cloudy
10:29 AM 87.8 °F 102.5 °F 78.8 °F 75% 30.03 in 10.0 mi South 19.6 mph - N/A   Mostly Cloudy
10:45 AM 86.0 °F 95.1 °F 75.2 °F 70% 30.03 in 10.0 mi South 15.0 mph - N/A Thunderstorm Thunderstorm
11:04 AM 87.8 °F 95.6 °F 73.4 °F 62% 30.03 in 10.0 mi SSE 21.9 mph - N/A   Mostly Cloudy
11:22 AM 89.6 °F 104.7 °F 78.8 °F 70% 30.04 in 10.0 mi South 21.9 mph 27.6 mph N/A   Mostly Cloudy
11:47 AM 89.6 °F 104.7 °F 78.8 °F 70% 30.04 in 10.0 mi South 20.7 mph 27.6 mph N/A   Mostly Cloudy
12:49 PM 89.6 °F 102.2 °F 77.0 °F 66% 30.03 in 10.0 mi South 21.9 mph 25.3 mph N/A   Mostly Cloudy
1:45 PM 89.6 °F 102.2 °F 77.0 °F 66% 30.04 in 10.0 mi South 11.5 mph - N/A   Mostly Cloudy
1:58 PM 87.8 °F 102.5 °F 78.8 °F 75% 30.04 in 10.0 mi South 17.3 mph - N/A   Mostly Cloudy
2:15 PM 87.8 °F 102.5 °F 78.8 °F 75% 30.04 in 10.0 mi South 17.3 mph - N/A   Mostly Cloudy
2:45 PM 89.6 °F 104.7 °F 78.8 °F 70% 30.03 in 10.0 mi South 18.4 mph - N/A   Mostly Cloudy
3:18 PM 87.8 °F 102.5 °F 78.8 °F 75% 30.02 in 10.0 mi South 15.0 mph - N/A Thunderstorm Thunderstorm
3:52 PM 87.8 °F 99.7 °F 77.0 °F 70% 30.01 in 10.0 mi SSW 12.7 mph - N/A   Mostly Cloudy
4:30 PM 87.8 °F 102.5 °F 78.8 °F 75% 30.00 in 10.0 mi South 12.7 mph - N/A   Mostly Cloudy